Probability
0 0 0 0 0 0 0 0 0 0 0 0 0 0 1 3 3 2 1 0 0 0 0 0 0 0 0 0 0 0 0 0 0 0 0 0 0 0 0 0 0 0 0 0
0 0 0 0 0 0 0 0 0 0 0 0 0 0 1 2 2 1 0 0 0 0 0 0 0 0 0 0 0 0 0 0 0 0 0 0 0 0 0 0 0 0 0 0
0 0 0 0 0 0 0 0 0 0 0 0 0 0 1 1 1 0 0 0 0 0 0 0 0 0 0 0 0 0 0 0 0 0 0 0 0 0 0 0 0 0 0 0
0 0 0 0 0 0 0 0 0 0 0 0 0 0 0 0 0 0 0 0 0 0 0 0 0 0 0 0 0 0 0 0 0 0 0 0 0 0 0 0 0 0 0 0
0 0 0 0 0 0 0 0 0 0 0 0 0 0 0 0 0 0 0 0 0 0 0 0 0 0 0 0 0 0 0 0 0 0 0 0 0 0 0 0 0 0 0 0
0 0 0 0 0 0 0 0 0 0 0 0 0 0 0 0 0 0 0 0 0 0 0 0 0 0 0 0 0 0 0 0 0 0 0 0 0 0 0 0 0 0 0 0
0 0 0 0 0 0 0 0 0 0 0 0 0 0 0 0 0 0 0 0 0 0 0 0 0 0 0 0 0 0 0 0 0 0 0 0 0 0 0 0 0 0 0 0
0 0 0 0 0 0 0 0 0 0 0 0 0 0 0 0 0 0 0 0 0 0 0 0 0 0 0 0 0 0 0 0 0 0 0 0 0 0 0 0 0 0 0 0
0 0 0 0 0 0 0 0 0 0 0 0 0 0 0 0 0 0 0 0 0 0 0 0 0 0 0 0 0 0 0 0 0 0 0 0 0 0 0 0 0 0 0 0
0 0 0 0 0 0 0 0 0 0 0 0 0 0 0 0 0 0 0 0 0 0 0 0 0 0 0 0 0 0 0 0 0 0 0 0 0 0 0 0 0 0 0 0
0 0 0 0 0 0 0 0 0 0 0 0 0 0 0 0 0 0 0 0 0 0 0 0 0 0 0 0 0 0 0 0 0 0 0 0 0 0 0 0 0 0 0 0
0 0 0 0 0 0 0 0 0 0 0 0 0 0 0 0 0 0 0 0 0 0 0 0 0 0 0 0 0 0 0 0 0 0 0 0 0 0 0 0 0 0 0 0
0 0 0 0 0 0 0 0 0 0 0 0 0 0 0 0 0 0 0 0 0 0 0 0 0 0 0 0 0 0 0 0 0 0 0 0 0 0 0 0 0 0 0 0
0 0 0 0 0 0 0 0 0 0 0 0 0 0 0 0 0 0 0 0 0 0 0 0 0 0 0 0 0 0 0 0 0 0 0 0 0 0 0 0 0 0 0 0
0 0 0 0 0 0 0 0 0 0 0 0 0 0 0 0 0 0 0 0 0 0 0 0 0 0 0 0 0 0 0 0 0 0 0 0 0 0 0 0 0 0 0 0
0 0 0 0 0 0 0 0 0 0 0 0 0 0 0 0 0 0 0 0 0 0 0 0 0 0 0 0 0 0 0 0 0 0 0 0 0 0 0 0 0 0 0 0
0 0 0 0 0 0 0 0 0 0 0 0 0 0 0 0 0 0 0 0 0 0 0 0 0 0 0 0 0 0 0 0 0 0 0 0 0 0 0 0 0 0 0 0
0 0 0 0 0 0 0 0 0 0 0 0 0 0 0 0 0 0 0 0 0 0 0 0 0 0 0 0 0 0 0 0 0 0 0 0 0 0 0 0 0 0 0 0
0 0 0 0 0 0 0 0 0 0 0 0 0 0 0 0 0 0 0 0 0 0 0 0 0 0 0 0 0 0 0 0 0 0 0 0 0 0 0 0 0 0 0 0
0 0 0 0 0 0 0 0 0 0 0 0 0 0 0 0 0 0 0 0 0 0 0 0 0 0 0 0 0 0 0 0 0 0 0 0 0 0 0 0 0 0 0 0
0 0 0 0 0 0 0 0 0 0 0 0 0 0 0 0 0 0 0 0 0 0 0 0 0 0 0 0 0 0 0 0 0 0 0 0 0 0 0 0 0 0 0 0
0 0 0 0 0 0 0 0 0 0 0 0 0 0 0 0 0 0 0 0 0 0 0 0 0 0 0 0 0 0 0 0 0 0 0 0 0 0 0 0 0 0 0 0
0 0 0 0 0 0 0 0 0 0 0 0 0 0 0 0 0 0 0 0 0 0 0 0 0 0 0 0 0 0 0 0 0 0 0 0 0 0 0 0 0 0 0 0
0 0 0 0 0 0 0 0 0 0 0 0 0 0 0 0 0 0 0 0 0 0 0 0 0 0 0 0 0 0 0 0 0 0 0 0 0 0 0 0 0 0 0 0
0 0 0 0 0 0 0 0 0 0 0 0 0 0 0 0 0 0 0 0 0 0 0 0 0 0 0 0 0 0 0 0 0 0 0 0 0 0 0 0 0 0 0 0
0 0 0 0 0 0 0 0 0 0 0 0 0 0 0 0 0 0 0 0 0 0 0 0 0 0 0 0 0 0 0 0 0 0 0 0 0 0 0 0 0 0 0 0
0 0 0 0 0 0 0 0 0 0 0 0 0 0 0 0 0 0 0 0 0 0 0 0 0 0 0 0 0 0 0 0 0 0 0 0 0 0 0 0 0 0 0 0
Wind_Speed
5 6 4 5 7 5 6 7 8 8 8 9 9 11 13 16 18 19 19 18 16 13 11 10 7 5 4 3 2 2 2 3 3 3 3 4 4 5 5 5 6 5 6 6
4 5 6 8 9 8 9 8 9 8 11 6 4 7 12 17 20 21 20 19 17 15 13 11 8 6 4 3 3 2 3 4 4 4 4 5 5 5 5 6 5 5 5 5
4 4 5 9 9 9 8 8 8 11 11 4 6 13 18 19 19 19 19 18 17 15 12 10 8 6 5 3 2 2 3 4 4 4 5 6 5 5 5 5 4 4 4 3
2 1 8 9 4 4 6 7 6 6 4 6 5 6 5 8 11 15 16 16 14 12 10 7 5 4 3 2 2 3 3 4 5 5 5 5 5 5 4 3 3 3 3 4
2 3 8 9 5 2 3 7 4 4 3 7 10 10 8 7 11 12 12 12 11 10 8 6 5 4 3 2 1 2 4 5 5 4 5 5 5 4 4 3 4 4 4 5
3 2 6 6 5 5 2 7 4 2 7 10 7 7 5 9 15 15 13 11 11 9 7 6 4 3 3 1 1 3 4 4 4 4 4 4 5 5 5 5 5 5 6 6
4 5 8 5 8 7 2 6 7 1 6 6 3 6 12 14 14 14 12 11 9 8 6 4 4 4 2 0 2 3 3 4 5 6 6 6 6 5 5 5 5 6 6 7
1 3 9 5 8 3 4 4 3 5 9 13 15 17 16 16 14 13 11 9 7 6 4 3 3 3 2 2 2 3 5 7 7 7 6 6 6 5 5 5 6 6 7 8
5 7 6 5 7 8 5 2 2 6 13 17 18 17 16 14 12 11 9 7 5 6 4 2 2 2 2 2 2 5 7 7 6 7 6 5 5 5 4 5 5 6 7 8
5 6 5 6 5 3 3 6 8 11 13 15 17 16 15 12 10 8 6 6 5 5 4 3 3 3 2 2 5 7 7 6 5 6 5 5 4 4 4 5 6 7 8 8
5 5 4 5 5 7 10 12 13 12 12 14 15 14 12 10 8 6 5 4 5 5 4 3 3 4 4 5 7 8 6 5 5 5 4 5 4 3 4 3 5 7 6 7
2 1 1 3 6 9 11 11 11 13 12 11 11 12 10 8 6 6 5 5 5 5 4 4 5 5 5 5 6 7 6 5 4 4 4 4 4 5 6 7 11 11 10 9
1 4 7 8 9 9 9 10 10 10 11 10 9 9 9 7 5 5 6 6 5 5 5 5 6 6 5 5 7 7 6 5 4 4 4 4 4 5 6 8 9 10 12 13
7 8 8 6 7 8 10 11 11 11 10 9 9 9 8 7 6 6 5 4 5 6 6 6 7 6 5 6 8 8 7 7 5 3 3 4 4 5 5 6 7 7 9 12
6 6 8 8 9 8 8 10 12 10 10 9 8 8 8 8 7 5 5 6 7 7 6 6 8 6 5 7 8 7 6 4 4 3 3 4 4 5 6 7 6 7 7 9
9 10 9 10 9 8 8 10 10 8 8 8 8 7 7 7 7 6 6 6 7 6 5 6 7 5 5 7 7 5 5 7 5 4 4 5 5 6 6 7 7 7 7 8
10 8 7 8 7 7 7 7 7 7 7 8 7 7 8 8 8 7 7 6 6 5 4 6 6 6 6 6 6 4 4 5 6 5 4 5 5 6 6 6 7 7 7 10
8 7 7 8 9 9 8 7 8 8 7 7 7 8 8 8 7 5 5 5 6 7 5 4 6 7 6 6 5 4 4 3 3 4 4 5 5 6 6 7 7 8 7 8
10 9 8 7 8 9 8 7 6 6 7 7 8 7 6 6 6 5 4 5 6 6 4 4 9 7 6 5 5 3 3 3 3 4 4 6 6 6 6 7 7 7 7 7
8 9 9 8 7 8 8 7 7 7 6 7 7 7 6 5 5 5 6 5 3 2 3 5 6 5 5 4 5 3 3 3 3 3 4 5 5 6 6 7 7 7 7 7
10 10 9 8 8 7 7 7 7 7 5 6 7 6 5 5 5 5 5 4 3 3 5 7 5 4 4 4 5 3 3 3 3 3 4 4 5 6 6 7 7 7 7 7
9 9 9 8 8 7 5 6 7 7 6 6 6 6 6 6 5 5 4 2 2 4 4 4 4 5 6 6 4 3 3 3 3 3 4 4 5 5 6 6 6 7 7 7
8 8 8 8 8 7 6 5 6 6 6 5 5 5 5 4 4 4 2 1 2 5 4 4 7 10 9 5 4 4 4 4 4 4 4 4 4 4 5 6 6 6 7 7
7 7 7 7 7 7 6 4 5 4 5 4 4 5 5 5 3 2 2 4 6 7 5 7 11 11 8 4 4 4 4 4 3 3 4 4 4 4 5 5 5 6 6 8
8 7 7 8 7 5 6 6 5 5 4 3 3 3 3 3 4 4 4 5 8 8 6 7 11 10 6 4 4 4 3 3 3 3 3 4 4 4 5 5 5 5 6 6
6 6 6 6 5 5 5 5 4 3 4 3 2 3 3 4 6 5 5 5 7 8 6 4 5 6 5 4 4 4 4 4 4 4 4 4 4 4 4 5 7 5 5 6
6 5 4 4 3 4 5 5 5 4 4 4 3 3 4 5 5 6 6 5 5 5 5 4 4 4 4 4 4 4 3 3 3 3 3 3 3 4 4 5 4 5 5 6
Wind_Direction
256 271 278 262 269 261 221 211 216 239 234 244 216 192 175 161 157 157 158 157 153 148 144 142 145 156 177 203 217 222 222 235 251 265 274 280 283 285 288 288 284 280 282 284
286 276 286 277 266 256 247 232 231 245 253 247 183 151 160 165 165 165 163 159 153 150 150 150 155 167 186 206 226 228 232 248 263 273 279 278 278 283 287 289 290 291 292 296
266 290 326 273 245 234 235 225 212 231 241 170 173 179 179 174 171 167 160 155 152 151 150 150 156 168 182 205 225 230 246 264 270 271 277 280 286 291 290 292 296 305 317 328
255 313 237 247 263 254 256 264 254 259 262 185 168 138 126 150 153 150 148 146 142 139 137 138 146 162 172 193 217 239 263 276 283 287 288 293 298 298 300 308 327 343 3 8
167 248 280 294 300 328 298 288 271 232 152 121 107 80 59 89 117 123 126 127 126 127 127 133 149 161 155 162 229 270 287 296 303 305 306 318 332 344 359 23 27 25 21 11
153 220 253 270 329 328 302 292 310 185 152 144 126 134 130 111 112 112 113 116 119 120 123 136 147 146 139 160 287 306 312 316 332 351 7 23 34 40 39 44 34 21 11 356
198 233 265 288 318 326 252 278 330 53 137 135 93 114 118 113 108 109 110 111 115 123 131 141 140 133 126 37 327 319 344 25 40 48 61 62 59 52 45 39 27 14 357 338
188 228 261 329 348 340 274 310 4 85 103 104 105 107 110 109 109 110 111 113 118 123 123 119 125 124 92 9 340 31 61 64 58 52 59 62 58 47 37 27 15 1 348 339
218 238 272 300 273 269 237 182 125 113 118 119 116 114 111 110 111 114 119 120 120 123 115 97 99 108 71 4 54 83 80 70 61 59 53 49 47 35 19 8 360 347 343 341
270 280 306 326 331 2 103 114 111 117 118 118 116 117 116 117 118 119 119 116 114 112 102 75 51 59 68 71 94 97 88 75 62 56 44 32 26 16 5 354 348 345 346 342
255 278 322 5 37 81 94 100 103 102 106 113 116 118 120 119 117 114 107 100 103 104 95 67 52 55 66 94 105 99 88 76 61 49 37 20 8 349 348 327 331 339 340 337
271 313 58 40 59 90 97 99 106 108 103 102 112 115 113 108 105 104 100 99 96 90 81 67 69 70 73 91 103 100 86 70 56 45 33 21 7 359 355 352 343 345 343 343
151 90 94 90 80 84 93 96 98 102 109 107 100 107 107 101 99 96 95 94 91 85 82 80 82 81 82 91 92 89 86 75 57 46 33 18 8 5 356 347 346 349 348 350
107 100 92 85 89 89 95 94 91 87 88 95 99 98 97 95 93 91 90 91 90 86 83 89 91 88 91 93 90 85 79 72 66 46 29 13 2 358 356 354 353 354 351 352
95 92 107 103 94 90 95 100 97 92 92 87 89 94 98 97 93 88 88 91 85 80 83 94 99 96 95 94 91 85 80 70 55 39 24 9 359 359 360 359 357 354 356 358
108 102 104 102 100 96 97 100 102 98 95 93 90 91 95 96 89 78 71 81 88 88 95 105 107 109 102 96 92 82 75 76 64 41 22 13 9 8 6 4 2 360 3 4
123 121 120 117 111 104 101 103 106 105 99 98 101 102 96 90 82 73 64 66 82 86 96 113 116 113 104 100 96 88 73 60 52 41 26 18 14 11 6 5 5 2 4 2
125 127 135 137 134 122 110 103 102 100 101 108 106 101 99 100 98 91 85 86 82 68 62 98 118 114 107 101 95 89 78 62 45 36 24 21 15 10 9 9 6 6 3 1
126 125 124 124 127 123 117 111 105 102 104 104 103 103 103 105 106 101 90 80 78 72 55 101 124 116 112 110 102 86 78 62 45 31 23 19 20 16 14 14 10 7 5 5
126 126 124 120 117 118 117 113 107 102 104 107 104 101 100 102 107 103 89 73 56 79 111 121 119 115 114 111 103 85 75 60 42 28 27 27 25 23 18 15 12 9 7 6
132 131 129 123 116 115 119 119 113 109 107 109 109 113 112 108 106 105 96 78 34 70 104 118 115 118 112 109 95 82 70 55 42 34 33 31 31 29 24 19 15 12 8 5
136 134 131 126 122 118 120 118 116 112 106 102 104 109 109 109 104 86 72 92 95 109 108 110 112 120 119 107 87 82 73 66 57 51 47 42 38 34 29 23 18 14 10 7
134 135 135 136 132 127 120 120 122 120 120 122 125 125 120 121 122 119 111 90 95 115 113 116 127 123 112 96 90 84 78 72 65 60 55 48 41 36 31 27 22 17 13 11
131 131 129 123 118 120 127 134 125 122 124 124 132 133 127 118 92 67 112 122 119 114 107 126 128 120 107 96 93 86 79 76 72 67 60 51 43 38 34 29 25 20 18 18
130 127 127 132 138 146 144 131 117 113 112 107 108 109 111 126 131 130 116 115 120 113 106 121 123 115 106 102 98 92 84 81 83 76 60 52 43 39 35 30 26 22 19 16
136 144 150 157 152 145 141 135 132 138 132 121 101 92 96 98 109 113 109 112 116 116 114 113 113 107 104 104 101 98 91 87 77 69 65 57 49 42 35 31 30 25 19 16
115 115 115 108 112 134 140 142 144 153 157 149 139 127 122 120 119 119 116 115 116 114 113 112 111 111 111 108 103 98 92 87 82 76 68 59 51 43 36 35 29 23 21 22